Location: Hodgeman County Ambulance
(38.0844°N, 99.8949°W)
Time: 00:20:16
(UTC+00:00)

CZ-4B R/B - Pass Details

Date: 27 October 2020
Orbit: 489 x 649 km, 97.9° (Epoch: 04 December)

Event Time Altitude Azimuth Distance (km) Brightness Sun altitude
Rises 12:21:55 0° 2° (N) 2,749 6.3 -8.3°
Reaches altitude 10° 12:24:07 10° 354° (N) 1,876 5.4 -7.9°
Maximum altitude 12:27:51 36° 288° (WNW) 938 3.5 -7.1°
Drops below altitude 10° 12:31:44 10° 221° (SW) 1,952 5.3 -6.4°
Sets 12:34:05 0° 213° (SSW) 2,876 6.3 -5.9°
